Location: Caltech
(34.1382°N, 118.1253°W)
Time: 18:10:35
(UTC-07:00)

Cosmos 1484 Rocket - Visible Passes

Search period start: 20 October 2017 00:00
Search period end: 30 October 2017 00:00
Orbit: 506 x 563 km, 97.3° (Epoch: 20 October)

Date Brightness Start Highest point End Pass type
(mag) Time Alt. Az. Time Alt. Az. Time Alt. Az.
20 Oct 6.6 19:40:10 10° W 19:40:32 10° W 19:40:53 10° W visible
21 Oct 6.2 19:29:33 10° SW 19:31:26 13° W 19:33:20 10° WNW visible
22 Oct 5.9 19:19:48 10° SW 19:22:21 18° W 19:24:54 10° NW visible
23 Oct 5.4 19:10:18 10° SSW 19:13:16 23° W 19:16:16 10° NW visible
24 Oct 4.9 19:00:56 10° SSW 19:04:12 30° W 19:07:30 10° NW visible
25 Oct 4.8 06:38:17 10° NNE 06:41:52 35° E 06:45:28 10° SSE visible
25 Oct 4.3 18:51:39 10° S 18:55:09 39° W 18:58:39 10° NNW visible
26 Oct 5.4 06:29:28 10° NE 06:32:49 27° E 06:36:10 10° SSE visible
26 Oct 3.6 18:42:28 10° S 18:46:06 53° W 18:49:45 10° NNW visible
27 Oct 5.8 06:20:44 10° NE 06:23:45 21° E 06:26:46 10° SE visible
27 Oct 2.9 18:33:22 10° S 18:37:03 73° W 18:40:46 10° NNW visible
28 Oct 6.2 06:12:09 10° NE 06:14:41 16° E 06:17:12 10° SE visible
28 Oct 2.6 18:24:20 10° SSE 18:28:01 82° E 18:31:45 10° N visible
29 Oct 6.4 06:03:49 10° ENE 06:05:35 13° E 06:07:22 10° ESE visible
